Weather History for Barcelona / Aeropuerto, Spain

Change the Weather History Date:

Wednesday, May 8, 2013

  Actual Average Record
Temperature  
Mean Temperature 67 °F -  
Max Temperature 73 °F 70 °F - ()
Min Temperature 61 °F 58 °F - ()
Cooling Degree Days 2    
Growing Degree Days 17 (Base 50)    
Moisture  
Dew Point 56 °F    
Average Humidity 67    
Maximum Humidity 83    
Minimum Humidity 39    
Precipitation  
Precipitation 0.00 in 0.07 in - ()
Sea Level Pressure  
Sea Level Pressure 29.97 in    
Wind  
Wind Speed 4 mph ()    
Max Wind Speed 12 mph    
Max Gust Speed -    
Visibility 6.9 miles    
Events      
T = Trace of Precipitation, MM = Missing Value Source: Averaged Metar Reports

Daily Weather History Graph

Daily Weather History Graph

Search for Another Location

Airport:

Trip Planner

Search our weather history database for the weather conditions in past years. The results will help you decide how hot, cold, wet, or windy it might be!

Date:

Astronomy

May. 08, 2013 Rise Set
Actual Time 6:40 AM CEST 8:56 PM CEST
Civil Twilight 6:09 AM CEST 9:27 PM CEST
Nautical Twilight 5:32 AM CEST 10:05 PM CEST
Astronomical Twilight 4:50 AM CEST 10:47 PM CEST
Moon 5:40 AM CEST (5/8) 7:39 PM CEST (5/8)
Length of Visible Light 15h 17m
Length of Day
14h 15m
Waning Crescent, 2% of the Moon is Illuminated
May 8
Waning Crescent
May 10
New
May 18
First Quarter
May 25
Full
May 31
Last Quarter

Hourly Weather History & Observations

Time (CEST) Temp. Dew Point Humidity Pressure Visibility Wind Dir Wind Speed Gust Speed Precip Events Conditions
12:00 AM 64.4 °F 59.0 °F 83% 30.01 in 6.2 mi ENE 2.3 mph - N/A   Partly Cloudy
12:30 AM 64.4 °F 57.2 °F 77% 30.01 in 6.2 mi Variable 2.3 mph - N/A   Partly Cloudy
1:00 AM 64.4 °F 55.4 °F 73% 30.01 in 6.2 mi East 3.5 mph - N/A   Partly Cloudy
1:30 AM 64.4 °F 55.4 °F 73% 30.01 in 6.2 mi Calm Calm - N/A   Partly Cloudy
2:00 AM 63 °F 54 °F 65% 30.01 in 9 mi North 5.8 mph - -   Scattered Clouds
2:00 AM 64.4 °F 55.4 °F 73% 30.01 in 6.2 mi Calm Calm - N/A   Partly Cloudy
2:30 AM 64.4 °F 55.4 °F 73% 30.01 in 6.2 mi South 1.2 mph - N/A   Partly Cloudy
3:00 AM 64.4 °F 55.4 °F 73% 29.98 in 6.2 mi Variable 2.3 mph - N/A   Partly Cloudy
3:30 AM 62.6 °F 53.6 °F 72% 29.98 in 6.2 mi Variable 2.3 mph - N/A   Partly Cloudy
4:00 AM 64.4 °F 53.6 °F 68% 29.98 in 6.2 mi Calm Calm - N/A   Partly Cloudy
4:30 AM 62.6 °F 51.8 °F 68% 29.98 in 6.2 mi Calm Calm - N/A   Partly Cloudy
5:00 AM 62.6 °F 51.8 °F 68% 29.95 in 6.2 mi Variable 1.2 mph - N/A   Partly Cloudy
5:30 AM 62.6 °F 51.8 °F 68% 29.95 in 6.2 mi NNW 3.5 mph - N/A   Partly Cloudy
6:00 AM 62.6 °F 51.8 °F 68% 29.95 in 6.2 mi Variable 2.3 mph - N/A   Partly Cloudy
6:30 AM 62.6 °F 51.8 °F 68% 29.95 in 6.2 mi NW 4.6 mph - N/A   Partly Cloudy
7:00 AM 62.6 °F 51.8 °F 68% 29.95 in 6.2 mi WNW 6.9 mph - N/A   Partly Cloudy
7:30 AM 62.6 °F 51.8 °F 68% 29.95 in 6.2 mi WNW 9.2 mph - N/A   Partly Cloudy
8:00 AM 65 °F 51 °F 50% 29.98 in 16 mi North 5.8 mph - -   Scattered Clouds
8:00 AM 64.4 °F 51.8 °F 64% 29.98 in 6.2 mi NW 9.2 mph - N/A   Partly Cloudy
8:30 AM 66.2 °F 51.8 °F 60% 29.95 in 6.2 mi NW 6.9 mph - N/A   Partly Cloudy
9:00 AM 68.0 °F 53.6 °F 60% 29.98 in 6.2 mi NW 6.9 mph - N/A   Partly Cloudy
9:30 AM 69.8 °F 50.0 °F 49% 29.98 in 6.2 mi West 3.5 mph - N/A   Partly Cloudy
10:00 AM 71.6 °F 51.8 °F 50% 29.98 in 6.2 mi Variable 2.3 mph - N/A   Partly Cloudy
10:30 AM 71.6 °F 51.8 °F 50% 29.98 in 6.2 mi SW 2.3 mph - N/A   Partly Cloudy
11:00 AM 69.8 °F 53.6 °F 56% 29.98 in 6.2 mi SSW 6.9 mph - N/A   Partly Cloudy
11:30 AM 69.8 °F 50.0 °F 49% 29.98 in 6.2 mi SSW 8.1 mph - N/A   Partly Cloudy
12:00 PM 69.8 °F 51.8 °F 53% 29.98 in 6.2 mi South 9.2 mph - N/A   Partly Cloudy
1:00 PM 69.8 °F 53.6 °F 56% 29.98 in 6.2 mi South 6.9 mph - N/A   Partly Cloudy
1:30 PM 71.6 °F 53.6 °F 53% 29.98 in 6.2 mi South 6.9 mph - N/A   Partly Cloudy
2:00 PM 73 °F 53 °F 39% 29.97 in 19 mi South 8.1 mph - -   Scattered Clouds
2:00 PM 73.4 °F 55.4 °F 53% 29.98 in 6.2 mi South 8.1 mph - N/A   Partly Cloudy
2:30 PM 71.6 °F 53.6 °F 53% 29.95 in 6.2 mi SSE 6.9 mph - N/A   Partly Cloudy
3:00 PM 69.8 °F 57.2 °F 64% 29.95 in 6.2 mi South 6.9 mph - N/A   Partly Cloudy
3:30 PM 69.8 °F 57.2 °F 64% 29.95 in 6.2 mi SSE 6.9 mph - N/A   Partly Cloudy
4:00 PM 69.8 °F 59.0 °F 68% 29.95 in 6.2 mi South 6.9 mph - N/A   Partly Cloudy
4:30 PM 68.0 °F 59.0 °F 73% 29.95 in 6.2 mi SSE 5.8 mph - N/A   Partly Cloudy
5:00 PM 68.0 °F 59.0 °F 73% 29.92 in 6.2 mi SSE 3.5 mph - N/A   Partly Cloudy
5:30 PM 68.0 °F 59.0 °F 73% 29.95 in 6.2 mi SE 3.5 mph - N/A   Partly Cloudy
6:00 PM 69.8 °F 59.0 °F 68% 29.95 in 6.2 mi SE 3.5 mph - N/A   Partly Cloudy
6:30 PM 68.0 °F 59.0 °F 73% 29.92 in 6.2 mi SSE 4.6 mph - N/A   Partly Cloudy
7:00 PM 68.0 °F 59.0 °F 73% 29.95 in 6.2 mi SSE 3.5 mph - N/A   Partly Cloudy
7:30 PM 68.0 °F 60.8 °F 78% 29.95 in 6.2 mi SSE 4.6 mph - N/A   Partly Cloudy
8:00 PM 67 °F 58 °F 67% 29.96 in 19 mi WSW 3.5 mph - -   Scattered Clouds
8:00 PM 68.0 °F 60.8 °F 78% 29.95 in 6.2 mi SSW 3.5 mph - N/A   Partly Cloudy
8:30 PM 68.0 °F 59.0 °F 73% 29.95 in 6.2 mi North 1.2 mph - N/A   Partly Cloudy
9:00 PM 69.8 °F 59.0 °F 68% 29.98 in 6.2 mi ESE 3.5 mph - N/A   Partly Cloudy
9:30 PM 68.0 °F 60.8 °F 78% 29.95 in 6.2 mi East 3.5 mph - N/A   Partly Cloudy
10:00 PM 68.0 °F 60.8 °F 78% 29.98 in 6.2 mi ENE 3.5 mph - N/A   Partly Cloudy
10:30 PM 68.0 °F 60.8 °F 78% 30.01 in 6.2 mi ENE 8.1 mph - N/A   Partly Cloudy
11:00 PM 66.2 °F 60.8 °F 83% 30.01 in 6.2 mi ENE 11.5 mph - N/A   Partly Cloudy
11:30 PM 66.2 °F 60.8 °F 83% 30.01 in 6.2 mi ENE 8.1 mph - N/A   Partly Cloudy